Location: Newark
(49.3000°N, 9.4667°E)
Time: 10:52:24
(UTC+00:00)

Transit 4A - All Passes

Search period start: 21 May 2019 00:00
Search period end: 31 May 2019 00:00
Orbit: 862 x 983 km, 66.8° (Epoch: 20 May)

Date Brightness Start Highest point End Pass type
(mag) Time Alt. Az. Time Alt. Az. Time Alt. Az.
21 May - 01:19:42 10° WNW 01:23:45 18° WSW 01:27:44 10° SW visible
21 May - 13:01:32 10° ESE 13:03:25 11° E 13:05:18 10° E daylight
21 May - 14:42:23 10° SSW 14:48:29 61° ESE 14:54:46 10° NE daylight
21 May - 16:29:25 10° WSW 16:35:13 38° NW 16:41:11 10° NNE daylight
21 May - 18:19:18 10° NW 18:23:32 18° NNW 18:27:48 10° NNE daylight
21 May - 20:08:17 10° NNW 20:12:33 18° NNE 20:16:50 10° NE visible
21 May - 21:54:51 10° NNW 22:00:51 38° NE 22:06:46 10° ESE visible
21 May - 23:41:16 10° NW 23:47:36 61° WSW 23:53:49 10° SSE visible
22 May - 01:30:37 10° W 01:32:42 12° W 01:34:45 10° WSW visible
22 May - 13:08:28 10° SE 13:12:21 17° ESE 13:16:18 10° ENE daylight
22 May - 14:51:33 10° SSW 14:57:46 82° SE 15:04:13 10° NE daylight
22 May - 16:39:22 10° W 16:44:53 31° NW 16:50:31 10° NNE daylight
22 May - 18:29:29 10° NW 18:33:27 17° N 18:37:27 10° NNE daylight
22 May - 20:17:47 10° NNW 20:22:26 20° NNE 20:27:04 10° ENE visible
22 May - 22:04:11 10° NNW 22:10:26 49° NE 22:16:36 10° ESE visible
22 May - 23:50:48 10° NW 23:56:50 44° WSW 00:02:45 10° S visible
23 May - 13:16:27 10° SSE 13:21:22 25° ESE 13:26:23 10° NE daylight
23 May - 15:00:55 10° SW 15:07:09 75° NW 15:13:36 10° NE daylight
23 May - 16:49:27 10° W 16:54:37 25° NNW 16:59:52 10° NNE daylight
23 May - 18:39:32 10° NW 18:43:24 16° N 18:47:17 10° NE daylight
23 May - 20:27:14 10° NNW 20:32:16 23° NNE 20:37:17 10° ENE visible
23 May - 22:13:31 10° NNW 22:19:57 64° NE 22:26:15 10° SE visible
24 May - 00:00:26 10° NW 00:05:59 31° WSW 00:11:25 10° S visible
24 May - 13:24:55 10° S 13:30:28 35° ESE 13:36:09 10° NE daylight
24 May - 15:10:27 10° SW 15:16:37 57° NW 15:22:57 10° NNE daylight
24 May - 16:59:37 10° WNW 17:04:25 22° NNW 17:09:17 10° NNE daylight
24 May - 18:49:26 10° NNW 18:53:21 16° N 18:57:16 10° NE daylight
24 May - 20:36:37 10° NNW 20:42:03 27° NNE 20:47:26 10° E visible
24 May - 22:22:54 10° NW 22:29:22 84° NE 22:35:44 10° SE visible
25 May - 00:10:17 10° WNW 00:15:03 22° WSW 00:19:45 10° SSW visible
25 May - 13:33:41 10° S 13:39:38 49° ESE 13:45:45 10° NE daylight
25 May - 15:20:10 10° WSW 15:26:09 44° NW 15:32:17 10° NNE daylight
25 May - 17:09:50 10° WNW 17:14:16 19° NNW 17:18:45 10° NNE daylight
25 May - 18:59:11 10° NNW 19:03:17 17° N 19:07:22 10° NE daylight
25 May - 20:45:58 10° NNW 20:51:45 33° NE 20:57:28 10° E visible
25 May - 22:32:17 10° NW 22:38:44 74° WSW 22:45:02 10° SSE visible
26 May - 00:20:34 10° WNW 00:24:02 15° WSW 00:27:30 10° SW visible
26 May - 12:00:49 10° SE 12:03:41 13° E 12:06:35 10° ENE daylight
26 May - 13:42:42 10° SSW 13:48:53 68° ESE 13:55:15 10° NE daylight
26 May - 15:30:02 10° WSW 15:35:46 35° NW 15:41:37 10° NNE daylight
26 May - 17:20:02 10° NW 17:24:10 17° NNW 17:28:20 10° NNE daylight
26 May - 19:08:47 10° NNW 19:13:11 19° NNE 19:17:35 10° ENE daylight
26 May - 20:55:17 10° NNW 21:01:23 42° NE 21:07:23 10° ESE visible
26 May - 22:41:46 10° NW 22:48:00 54° WSW 22:54:07 10° SSE visible
27 May - 12:08:19 10° SSE 12:12:39 20° ESE 12:17:04 10° ENE daylight
27 May - 13:51:57 10° SW 13:58:13 89° NW 14:04:40 10° NE daylight
27 May - 15:40:03 10° W 15:45:27 29° NNW 15:50:57 10° NNE daylight
27 May - 17:30:11 10° NW 17:34:06 16° N 17:38:03 10° NNE daylight
27 May - 19:18:16 10° NNW 19:23:03 21° NNE 19:27:49 10° ENE daylight
27 May - 21:04:37 10° NNW 21:10:56 54° NE 21:17:09 10° ESE visible
27 May - 22:51:20 10° NW 22:57:12 39° WSW 23:02:57 10° S visible
28 May - 12:16:30 10° SSE 12:21:41 28° ESE 12:27:01 10° NE daylight
28 May - 14:01:23 10° SW 14:07:37 68° NW 14:14:02 10° NNE daylight
28 May - 15:50:10 10° W 15:55:13 24° NNW 16:00:20 10° NNE daylight
28 May - 17:40:11 10° NW 17:44:03 16° N 17:47:56 10° NE daylight
28 May - 19:27:41 10° NNW 19:32:52 25° NNE 19:38:01 10° E daylight
28 May - 21:13:58 10° NNW 21:20:25 70° NE 21:26:45 10° SE visible
28 May - 23:01:02 10° NW 23:06:19 28° WSW 23:11:31 10° SSW visible
29 May - 12:25:05 10° S 12:30:49 40° ESE 12:36:42 10° NE daylight
29 May - 14:10:59 10° WSW 14:17:07 52° NW 14:23:23 10° NNE daylight
29 May - 16:00:21 10° WNW 16:05:02 21° NNW 16:09:46 10° NNE daylight
29 May - 17:50:02 10° NNW 17:54:00 17° N 17:57:58 10° NE daylight
29 May - 19:37:03 10° NNW 19:42:37 29° NNE 19:48:07 10° E daylight
29 May - 21:23:20 10° NW 21:29:49 88° WSW 21:36:10 10° SSE visible
29 May - 23:11:00 10° WNW 23:15:21 19° WSW 23:19:40 10° SSW visible
30 May - 10:54:38 10° ESE 10:55:03 10° E 10:55:28 10° E daylight
30 May - 12:33:57 10° SSW 12:40:01 56° ESE 12:46:15 10° NE daylight
30 May - 14:20:46 10° WSW 14:26:40 40° NW 14:32:43 10° NNE daylight
30 May - 16:10:35 10° WNW 16:14:54 18° NNW 16:19:16 10° NNE daylight
30 May - 17:59:43 10° NNW 18:03:55 18° NNE 18:08:07 10° NE daylight
30 May - 19:46:24 10° NNW 19:52:18 36° NE 19:58:07 10° ESE visible
30 May - 21:32:46 10° NW 21:39:09 66° WSW 21:45:23 10° SSE visible
30 May - 23:21:34 10° WNW 23:24:20 13° W 23:27:04 10° SW visible
